Regional Weather Roundup
Issued by NWS San Angelo, TX

Home | Current Version | Previous Version | Text Only | Print | Product List | Glossary On
Versions: 1 2 3 4 5 6 7 8 9 10 11 12 13 14 15 16 17 18 19 20 21 22 23 24 25 26 27 28 29 30 31 32 33 34 35 36 37 38 39 40 41 42 43 44 45 46 47 48 49 50
000
ASUS44 KSJT 302002
RWRSJT
WEST CENTRAL TEXAS REGIONAL WEATHER ROUNDUP
NATIONAL WEATHER SERVICE SAN ANGELO TX
300 PM CDT MON MAR 30 2015

NOTE: "FAIR" INDICATES FEW OR NO CLOUDS BELOW 12,000 FEET WITH NO
SIGNIFICANT WEATHER AND/OR OBSTRUCTIONS TO VISIBILITY.

TXZ049-054-064>066-071>073-076>078-098-099-113-114-127-128-139-140-
154-155-168>170-302100
...LOCATIONS ACROSS WEST CENTRAL TEXAS...

CITY           SKY/WX    TMP DP  RH WIND       PRES   REMARKS
SAN ANGELO     FAIR      82  56  40 NW5       30.12F
ABILENE        FAIR      79  55  43 VRB3      30.13F
DYESS AFB      PTSUNNY   78  56  47 S3        30.11F
JUNCTION       FAIR      84  57  39 S7        30.10F
SWEETWATER     NOT AVBL
BROWNWOOD      NOT AVBL
COLEMAN        NOT AVBL
SONORA         NOT AVBL
OZONA          NOT AVBL
BRADY          SUNNY     82  55  39 S3        30.11F
$$

TEXAS PANHANDLE/OKLAHOMA PANHANDLE

CITY           SKY/WX    TMP DP  RH WIND       PRES   REMARKS
AMARILLO       FAIR      76  30  18 SW18G28   30.14F
BORGER         FAIR      78  29  16 SW18G26   30.11F
CANADIAN       FAIR      80  29  15 S15G28    30.08F
DALHART        CLOUDY    75  29  18 SW21G26   30.13F
DUMAS          FAIR      78  31  18 SW22G31   30.12F
GUYMON         NOT AVBL
HEREFORD       NOT AVBL
PAMPA          NOT AVBL
PERRYTON       NOT AVBL
$$

SOUTHERN PANHANDLE/SOUTH PLAINS/ROLLING PLAINS

CITY           SKY/WX    TMP DP  RH WIND       PRES   REMARKS
LUBBOCK        CLOUDY    70  38  31 S9        30.17F
SNYDER         NOT AVBL
CHILDRESS      FAIR      76  34  21 SE8G18    30.13F
SEMINOLE       FAIR      70  48  46 S6        30.20F
$$

PERMIAN BASIN

CITY           SKY/WX    TMP DP  RH WIND       PRES   REMARKS
MIDLAND        FAIR      76  54  46 VRB7      30.16F
ODESSA         FAIR      75  52  44 S6        30.17F
WINK           FAIR      74  48  39 CALM      30.14F
$$

FAR WEST/SOUTHWEST MOUNTAINS/TRANS PECOS

CITY           SKY/WX    TMP DP  RH WIND       PRES   REMARKS
ALPINE         NOT AVBL
DRYDEN           N/A     75  61  61 SE8       30.13F
EL PASO        CLOUDY    77  34  21 SW6       30.15F
FORT STOCKTON  FAIR      76  49  38 VRB5      30.15F
GUADALUPE PASS CLOUDY    68  39  34 NE22      30.25F
MARFA          FAIR      77  36  22 S8        30.24F
PECOS          FAIR      74  49  41 N5        30.15F
$$

DALLAS/FORT WORTH METROPLEX

CITY           SKY/WX    TMP DP  RH WIND       PRES   REMARKS
DFW AIRPORT    CLOUDY    72  63  73 S9        30.11F
FTW MEACHAM    PTSUNNY   74  62  66 S12       30.10F
DAL-EXECUTIVE  CLOUDY    72  63  73 SE8       30.12F
GRAND PRAIRIE  CLOUDY    72  64  78 SE9       30.13F
ADDISON        NOT AVBL
MESQUITE       CLOUDY    72  63  73 SE10      30.31R
LANCASTER      CLOUDY    71  63  75 S5        30.13F
$$

NORTH CENTRAL TEXAS

CITY           SKY/WX    TMP DP  RH WIND       PRES   REMARKS
SHRMAN/DENISON CLOUDY    71  64  79 SE8       30.13F
GAINESVILLE    NOT AVBL
BRIDGEPORT     FAIR      75  63  66 E7        30.13F
DENTON         CLOUDY    72  62  71 SE8       30.11F
WAXAHACHIE     CLOUDY    72  64  76 SE8       30.13F
GRANBURY         N/A     78  63  58 E6        30.11F
$$

WESTERN NORTH TEXAS

CITY           SKY/WX    TMP DP  RH WIND       PRES   REMARKS
WICHITA FALLS  FAIR      76  51  41 VRB6      30.11F
VERNON         FAIR      75  34  21 CALM      30.13F
BRECKENRIDGE   NOT AVBL
COMANCHE       FAIR      81  60  48 SE5       30.11F
$$

CENTRAL AND SOUTH CENTRAL TEXAS

CITY           SKY/WX    TMP DP  RH WIND       PRES   REMARKS
AUSTIN/BERGSTM PTSUNNY   76  64  66 S10       30.12F
WACO           CLOUDY    74  63  68 SE10      30.12F
HILLSBORO      NOT AVBL
TEMPLE         CLOUDY    75  61  60 S14       30.11F
KILLEEN-GRAY   FAIR      77  63  61 S10G17    30.11F HAZE
FORT HOOD      PTSUNNY   79  62  57 S9        30.10F
GEORGETOWN     PTSUNNY   77  63  61 SE10      30.12F
LAGO VISTA     CLOUDY    75  62  64 S7        30.15F
SAN MARCOS     PTSUNNY   77  63  61 SW10      30.14F
NEW BRAUNFELS  CLOUDY    77  64  64 SW8       30.13F
RANDOLPH AFB   PTSUNNY   74  64  69 SW6       30.14F
SAN ANTONIO    CLOUDY    73  63  70 S7        30.15F
STINSON        CLOUDY    75  63  66 S7        30.12F
PLEASANTON     NOT AVBL
LA GRANGE      NOT AVBL
GIDDINGS       CLOUDY    78  62  58 S7        30.16F
$$

EAST TEXAS

CITY           SKY/WX    TMP DP  RH WIND       PRES   REMARKS
PARIS          NOT AVBL
CLARKSVILLE    NOT AVBL
TYLER          CLOUDY    74  61  63 SW8       30.13F
LONGVIEW       CLOUDY    74  61  63 S8        30.13F
PALESTINE      CLOUDY    78  63  60 S7        30.15F
NACOGDOCHES    CLOUDY    75  61  60 CALM      30.15F
$$

TEXAS HILL COUNTRY AND EDWARDS PLATEAU

CITY           SKY/WX    TMP DP  RH WIND       PRES   REMARKS
LLANO          NOT AVBL
HORSESHOE BAY  FAIR      78  64  61 S3        30.13F
KERRVILLE      NOT AVBL
FREDERICKSBRG  NOT AVBL
ROCKSPRINGS    NOT AVBL
HONDO          PTSUNNY   76  64  66 MISG      30.15F
UVALDE         FAIR      77  64  63 CALM      30.12F
DEL RIO        CLOUDY    71  62  73 SE6       30.12F
$$

SOUTHEAST TEXAS

CITY           SKY/WX    TMP DP  RH WIND       PRES   REMARKS
COLLEGE STN    CLOUDY    78  62  57 S14       30.13F
CALDWELL       NOT AVBL
CROCKETT       FAIR      79  64  61 S9        30.17F
BRENHAM        FAIR      82  64  55 S12       30.14F
HUNTSVILLE     PTSUNNY   79  61  53 S13       30.14F
CONROE         CLOUDY    78  57  48 SW8       30.14F
HOUSTON BUSH   PTSUNNY   82  59  45 VRB6G16   30.14F
HOUSTON HOBBY  PTSUNNY   80  60  50 S8G18     30.14F
PERLAND        FAIR      81  59  47 S8G17     30.16F
WHARTON        FAIR      80  63  56 S12       30.15F
$$

THE UPPER TEXAS COAST

CITY           SKY/WX    TMP DP  RH WIND       PRES   REMARKS
ORANGE         FAIR      78  57  49 S14       30.18F
PORT ARTHUR    PTSUNNY   82  61  48 S16       30.16F
GALVESTON      FAIR      74  67  78 S9        30.18F
ANGLETON       PTSUNNY   78  63  59 S16       30.16F
BAY CITY       MOCLDY    79  65  63 S12G20    30.16F
$$

TEXAS COASTAL BEND, RIO GRANDE PLAINS DEEP SOUTH TEXAS

CITY           SKY/WX    TMP DP  RH WIND       PRES   REMARKS
VICTORIA       PTSUNNY   79  67  66 S15       30.14F
BEEVILLE       CLOUDY    78  67  69 SE14      30.12F
ROCKPORT       FAIR      79  66  64 SE15      30.14F
PORT ARANSAS   NOT AVBL
PORT LAVACA    NOT AVBL
CORPUS CHRISTI PTSUNNY   78  67  68 SE22      30.13F
KINGSVILLE NAS PTSUNNY   82  71  69 SE15      30.10F
COTULLA        FAIR      85  62  46 SE12      30.09F
LAREDO         FAIR      88  63  43 SE14G20   30.09F
BROWNSVILLE    PTSUNNY   82  67  60 S22G28    30.12F
PORT ISABEL    PTSUNNY   80  65  59 SE17G30   30.11F
HEBBRONVILLE   NOT AVBL
MCALLEN        FAIR      87  66  49 S16       30.09F
WESLACO        NOT AVBL
FALFURRIAS     FAIR      84  65  52 SE12      30.09F
EDINBURG       MOCLDY    86  64  46 S13G18    30.10F
$$


USA.gov is the U.S. government's official web portal to all federal, state and local government web resources and services.